Date String (YYYY-MM-DD hh:mm:ss) UTC,Instrument flags,Ambient pressure (hPa),Sample flow (lpm),Bypass flow (lpm),Sample temperature (°C),Ambient temperature (°C),ASC tube jacket temperature (°C),LED temperature (°C),Box temperature (°C),Sample RH (%),Span deviation,Mass concentration (μg/m³),Mass concentration (μg/m³),Mass concentration (μg/m³)
DateTimeUTC,F1_M11,P_M11,Q1_M11,Q2_M11,T1_M11,T2_M11,T3_M11,T4_M11,T5_M11,U1_M11,ZSPAN_M11,X0_M11,X2_M11,X1_M11
2021-09-26 21:00:00,,0824.9,5.00,0.00,29.0,25.7,00.0,38.1,30.4,11.7,0003.2,0014.05,0006.31,0005.45
2021-09-26 21:01:00,,0824.9,5.00,0.00,29.0,26.2,00.0,38.1,30.6,11.4,0003.5,0013.88,0006.32,0005.45
2021-09-26 21:02:00,,0824.9,4.99,0.00,29.0,26.6,00.0,38.1,30.7,11.2,0003.7,0013.65,0006.33,0005.45
2021-09-26 21:03:00,,0824.9,4.99,0.00,29.0,27.0,00.0,38.1,30.8,11.3,0003.7,0013.86,0006.36,0005.45
2021-09-26 21:04:00,,0824.9,5.00,0.00,29.1,27.5,00.0,38.1,30.9,11.3,0003.5,0013.87,0006.32,0005.44
2021-09-26 21:05:00,,0824.9,5.00,0.00,29.1,27.8,00.0,38.1,31.0,11.5,0003.4,0014.23,0006.31,0005.44
2021-09-26 21:06:00,,0824.9,4.99,0.00,29.2,28.2,00.0,38.1,31.1,11.7,0003.1,0014.87,0006.31,0005.44
2021-09-26 21:07:00,,0824.9,5.01,0.00,29.3,28.0,00.0,38.2,31.1,11.6,0002.8,0014.91,0006.28,0005.45
2021-09-26 21:08:00,,0824.9,4.99,0.00,29.2,26.3,00.0,38.1,30.6,11.7,0002.6,0014.63,0006.24,0005.46
2021-09-26 21:09:00,,0824.9,5.01,0.00,29.0,25.6,00.0,38.1,30.4,11.8,0002.3,0014.26,0006.26,0005.48
2021-09-26 21:10:00,,0824.9,4.99,0.00,29.0,26.0,00.0,38.1,30.5,11.8,0002.2,0014.97,0006.27,0005.49
2021-09-26 21:11:00,,0824.9,5.01,0.00,29.0,26.5,00.0,38.1,30.7,11.7,0001.8,0016.61,0006.30,0005.50
2021-09-26 21:12:00,,0824.9,4.99,0.00,29.0,27.0,00.0,38.1,30.8,11.8,0001.5,0017.85,0006.28,0005.49
2021-09-26 21:13:00,,0824.9,5.00,0.00,29.1,27.4,00.0,38.1,30.9,11.8,0001.3,0017.83,0006.26,0005.50
2021-09-26 21:14:00,,0824.9,5.01,0.00,29.1,27.8,00.0,38.1,31.0,12.0,0000.9,0018.50,0006.29,0005.50
2021-09-26 21:15:00,,0824.9,4.99,0.00,29.2,27.7,00.0,38.1,31.0,11.9,0001.1,0018.63,0006.35,0005.52
2021-09-26 21:16:00,,0825.0,5.01,0.00,29.1,26.1,00.0,38.1,30.5,11.7,0001.0,0018.78,0006.34,0005.52
2021-09-26 21:17:00,,0824.9,4.98,0.00,28.9,25.5,00.0,38.1,30.3,11.8,0001.3,0018.79,0006.35,0005.53
2021-09-26 21:18:00,,0824.9,5.00,0.00,28.9,25.9,00.0,38.0,30.4,11.9,0001.1,0018.64,0006.39,0005.53
2021-09-26 21:19:00,,0824.9,5.01,0.00,28.9,26.3,00.0,38.0,30.5,12.0,0000.9,0018.51,0006.45,0005.52
2021-09-26 21:20:00,,0824.9,5.01,0.00,28.9,26.8,00.0,38.0,30.6,12.0,0001.4,0018.83,0006.48,0005.52
2021-09-26 21:21:00,,0824.9,4.99,0.00,28.9,27.3,00.0,38.0,30.7,12.0,0001.5,0018.13,0006.45,0005.51
2021-09-26 21:22:00,,0824.9,5.00,0.00,29.0,27.6,00.0,38.0,30.9,12.1,0001.4,0016.77,0006.46,0005.51
2021-09-26 21:23:00,,0824.9,5.01,0.00,29.1,27.9,00.0,38.0,31.0,12.1,0001.2,0015.00,0006.54,0005.52
2021-09-26 21:24:00,,0824.9,5.00,0.00,29.1,28.2,00.0,38.0,31.1,12.0,0000.9,0015.52,0006.60,0005.50
2021-09-26 21:25:00,,0824.9,5.01,0.00,29.2,28.1,00.0,38.1,31.1,11.9,0001.1,0015.38,0006.65,0005.50
2021-09-26 21:26:00,,0824.9,5.00,0.00,29.1,26.5,00.0,38.1,30.6,11.9,0000.7,0015.32,0006.68,0005.52
2021-09-26 21:27:00,,0824.8,5.01,0.00,29.0,25.6,00.0,38.0,30.3,12.2,0000.9,0015.27,0006.72,0005.52
2021-09-26 21:28:00,,0824.8,5.00,0.00,28.9,25.9,00.0,38.0,30.4,12.3,0001.0,0014.83,0006.74,0005.53
2021-09-26 21:29:00,,0824.8,5.00,0.00,28.9,26.3,00.0,38.0,30.5,12.0,0001.1,0014.40,0006.74,0005.53
2021-09-26 21:30:00,,0824.9,5.00,0.00,28.9,26.8,00.0,38.0,30.6,12.0,0001.6,0014.18,0006.73,0005.54
2021-09-26 21:31:00,,0824.8,5.01,0.00,28.9,27.2,00.0,38.0,30.8,11.9,0001.9,0013.80,0006.65,0005.53
2021-09-26 21:32:00,,0824.8,4.99,0.00,29.0,27.6,00.0,38.0,30.9,12.0,0001.9,0013.75,0006.67,0005.53
2021-09-26 21:33:00,,0824.8,5.01,0.00,29.1,27.9,00.0,38.0,31.0,11.9,0002.1,0013.80,0006.70,0005.55
2021-09-26 21:34:00,,0824.8,4.98,0.00,29.1,28.2,00.0,38.0,31.1,11.7,0001.8,0013.52,0006.63,0005.54
2021-09-26 21:35:00,,0824.8,5.01,0.00,29.2,28.4,00.0,38.0,31.2,11.8,0002.1,0012.80,0006.54,0005.54
2021-09-26 21:36:00,,0824.8,4.99,0.00,29.2,27.8,00.0,38.1,31.0,11.7,0002.5,0012.67,0006.48,0005.55
2021-09-26 21:37:00,,0824.8,5.01,0.00,29.1,26.1,00.0,38.1,30.5,11.7,0003.0,0012.58,0006.43,0005.53
2021-09-26 21:38:00,,0824.8,5.00,0.00,29.0,25.7,00.0,38.1,30.3,11.8,0002.4,0012.51,0006.41,0005.52
2021-09-26 21:39:00,,0824.8,5.00,0.00,28.9,26.1,00.0,38.0,30.5,11.8,0002.2,0012.38,0006.39,0005.51
2021-09-26 21:40:00,,0824.8,4.99,0.00,28.9,26.6,00.0,38.0,30.6,11.9,0002.4,0012.30,0006.36,0005.50
2021-09-26 21:41:00,,0824.8,5.01,0.00,28.9,27.0,00.0,38.0,30.7,11.9,0001.6,0012.16,0006.34,0005.49
2021-09-26 21:42:00,,0824.8,4.99,0.00,29.0,27.4,00.0,38.0,30.8,11.9,0001.4,0011.70,0006.34,0005.48
2021-09-26 21:43:00,,0824.8,5.00,0.00,29.1,27.8,00.0,38.0,31.0,12.2,0001.7,0012.63,0006.36,0005.49
2021-09-26 21:44:00,,0824.8,5.00,0.00,29.1,28.1,00.0,38.0,31.1,12.3,0001.7,0013.55,0006.43,0005.50
2021-09-26 21:45:00,,0824.7,4.99,0.00,29.2,28.3,00.0,38.1,31.1,12.3,0002.3,0013.99,0006.48,0005.51
2021-09-26 21:46:00,,0824.8,5.00,0.00,29.3,28.5,00.0,38.1,31.2,12.2,0002.2,0014.51,0006.54,0005.50
2021-09-26 21:47:00,,0824.7,5.01,0.00,29.2,27.4,00.0,38.1,30.9,12.2,0002.1,0014.39,0006.59,0005.50
2021-09-26 21:48:00,,0824.7,4.99,0.00,29.1,25.8,00.0,38.1,30.4,12.3,0001.9,0014.44,0006.62,0005.52
2021-09-26 21:49:00,,0824.7,5.01,0.00,29.0,25.8,00.0,38.1,30.4,12.2,0002.5,0014.98,0006.67,0005.54
2021-09-26 21:50:00,,0824.8,5.00,0.00,28.9,26.3,00.0,38.1,30.5,12.3,0002.3,0015.88,0006.69,0005.55
2021-09-26 21:51:00,,0824.7,5.00,0.00,28.9,26.7,00.0,38.0,30.6,12.2,0002.5,0016.23,0006.75,0005.54
2021-09-26 21:52:00,,0824.7,5.00,0.00,29.0,27.2,00.0,38.0,30.7,12.2,0002.9,0017.47,0006.86,0005.56
2021-09-26 21:53:00,,0824.7,5.00,0.00,29.0,27.6,00.0,38.0,30.9,12.2,0002.8,0018.95,0006.93,0005.55
2021-09-26 21:54:00,,0824.7,5.00,0.00,29.1,27.9,00.0,38.0,31.0,12.5,0002.5,0019.33,0006.94,0005.53
2021-09-26 21:55:00,,0824.7,5.01,0.00,29.2,28.2,00.0,38.1,31.1,12.3,0002.6,0019.18,0006.85,0005.51
2021-09-26 21:56:00,,0824.7,5.00,0.00,29.2,28.4,00.0,38.1,31.2,12.0,0002.5,0019.14,0006.83,0005.51
2021-09-26 21:57:00,,0824.7,5.00,0.00,29.3,28.3,00.0,38.1,31.2,12.0,0002.7,0018.63,0006.83,0005.52
2021-09-26 21:58:00,,0824.8,5.00,0.00,29.2,26.7,00.0,38.1,30.7,12.1,0002.6,0018.89,0006.80,0005.53
2021-09-26 21:59:00,,0824.7,5.01,0.00,29.1,25.6,00.0,38.1,30.4,12.1,0002.8,0019.57,0006.82,0005.53
